Location: University of Redlands
(34.0627°N, 117.1632°W)
Time: 04:31:26
(UTC-08:00)

ISS - Pass Details

Date: 24 November 2017
Orbit: 403 x 407 km, 51.6° (Epoch: 12 December)

Event Time Altitude Azimuth Distance (km) Brightness Sun altitude
Rises 18:42:10 0° 227° (SW) 2,314 0.9 -24.9°
Reaches altitude 10° 18:44:15 10° 228° (SW) 1,457 -0.3 -25.3°
Enters shadow 18:45:44 25° 230° (SW) 863 -1.7 -25.6°
